#timestamp,LO_Frequency,Hit 
1499234415.1,286046980.6,N
1499234416.0,286046980.6,N
1499234435.8,286046983.4,N
1499234455.7,286046982.3,N
1499234475.5,286046983.2,N
1499234495.3,286046982.6,N
1499234515.1,286046983.2,N
1499234535.9,286046977.7,N
1499234555.7,286046977.4,N
1499234575.5,286046980.3,N
1499234595.4,286046978.1,N
1499234615.2,286046974.5,N
1499234635.0,286046976.8,N
1499234635.9,286046976.8,N
1499234655.8,286046975.6,N
1499234675.6,286046973.2,N
1499234695.4,286046973.6,N
1499234715.3,286046975.1,N
1499234735.1,286046973.5,N
1499234736.0,286046973.5,N
1499234755.8,286046976.3,N
1499234775.7,286046978.7,N
1499234795.5,286046978.3,N
1499234815.3,286046977.8,N
1499234835.2,286046975.8,N
1499234855.9,286046978.2,N
1499234875.7,286046976.9,N
1499234895.6,286046976.1,N
1499234915.4,286046976.8,N
1499234935.2,286046977.2,N
1499234955.0,286046976.6,N
1499234955.9,286046976.6,N
1499234975.8,286046975.7,N
1499234995.6,286046976.7,N
1499235015.4,286046976.3,N
1499235035.3,286046978.4,N
1499235055.1,286046975.9,N
1499235075.8,286046976.0,N
1499235095.7,286046978.6,N
1499235115.5,286046976.0,N
1499235135.3,286046975.8,N
1499235155.2,286046974.9,N
1499235175.9,286046975.4,N
1499235195.7,286046972.7,N
1499235215.6,286046975.2,N
1499235235.4,286046975.1,N
1499235255.2,286046974.4,N
1499235275.1,286046975.6,N
1499235276.0,286046975.6,N
1499235295.8,286046975.3,N
1499235315.6,286046974.7,N
1499235335.5,286046973.4,N
1499235355.3,286046972.6,N
1499235375.1,286046974.3,N
1499235395.8,286046975.3,N
1499235415.7,286046975.3,N
1499235435.5,286046976.3,N
1499235455.3,286046978.6,N
1499235475.2,286046980.2,N
1499235495.9,286046979.7,N
1499235515.7,286046979.6,N
1499235535.6,286046979.2,N
1499235555.4,286046979.3,N
1499235575.2,286046981.5,N
1499235595.1,286046981.2,N
1499235596.0,286046981.2,N
1499235615.8,286046977.3,N
1499235635.6,286046980.1,N
1499235655.5,286046979.7,N
1499235675.3,286046978.7,N
1499235695.1,286046979.8,N
1499235715.8,286046979.5,N
1499235735.7,286046978.5,N
1499235755.5,286046978.8,N
1499235775.3,286046974.2,N
1499235795.2,286046975.5,N
1499235815.0,286046971.2,N
1499235815.9,286046971.2,N
1499235835.7,286046971.2,N
1499235855.6,286046973.4,N
1499235875.4,286046973.9,N
1499235895.2,286046971.8,N
1499235915.1,286046971.2,N
1499235916.0,286046971.2,N
1499235935.8,286046969.7,N
1499235955.6,286046969.0,N
1499235975.5,286046968.9,N
1499235995.3,286046970.5,N
1499236015.1,286046970.7,N
1499236035.8,286046969.9,N
1499236055.7,286046972.4,N
1499236075.5,286046972.3,N
1499236095.3,286046971.2,N
1499236115.2,286046972.3,N
1499236135.0,286046974.0,N
1499236135.9,286046974.0,N
1499236155.7,286046973.4,N
1499236175.6,286046973.5,N
1499236195.4,286046971.4,N
1499236215.2,286046964.9,N
1499236235.1,286046962.0,N
1499236236.0,286046962.0,N
1499236255.8,286046961.4,N
1499236275.6,286046960.5,N
1499236295.5,286046959.5,N
1499236315.3,286046959.7,N
1499236335.1,286046958.1,N
1499236355.9,286046961.3,N
1499236375.7,286046964.1,N
1499236395.5,286046961.5,N
1499236415.4,286046961.7,N
1499236435.2,286046963.2,N
1499236455.0,286046964.3,N
1499236455.9,286046964.3,N
1499236475.8,286046963.0,N
1499236495.6,286046964.0,N
1499236515.4,286046967.2,N
1499236535.2,286046967.0,N
1499236555.1,286046966.4,N
1499236556.0,286046966.4,N
1499236575.8,286046964.8,N
1499236595.6,286046969.1,N
1499236615.5,286046966.1,N
1499236635.3,286046966.1,N
1499236655.1,286046966.2,N
1499236675.9,286046966.2,N
1499236695.7,286046966.2,N
1499236715.5,286046968.3,N
1499236735.4,286046967.3,N
1499236755.2,286046967.5,N
1499236775.0,286046967.3,N
1499236775.9,286046967.3,N
1499236795.8,286046965.3,N
1499236815.6,286046965.7,N
1499236835.4,286046967.2,N
1499236855.3,286046964.6,N
1499236875.1,286046966.2,N
1499236876.0,286046966.2,N
1499236895.8,286046968.7,N
1499236915.6,286046963.2,N
1499236935.5,286046963.1,N
1499236955.3,286046964.3,N
1499236975.1,286046964.1,N
1499236995.9,286046964.1,N
1499237015.7,286046964.2,N
1499237035.5,286046964.2,N
1499237055.4,286046963.9,N
1499237075.2,286046964.4,N
1499237095.0,286046963.9,N
1499237095.9,286046963.9,N
1499237115.8,286046964.2,N
1499237135.6,286046958.8,N
1499237155.4,286046960.4,N
1499237175.3,286046958.3,N
1499237195.1,286046957.2,N
1499237196.0,286046957.2,N
1499237215.8,286046957.7,N
1499237235.7,286046959.5,N
1499237255.5,286046957.0,N
1499237275.3,286046959.2,N
1499237295.2,286046956.8,N
1499237315.9,286046957.6,N
1499237335.7,286046957.7,N
1499237355.5,286046957.2,N
1499237375.4,286046953.9,N
1499237395.2,286046953.3,N
1499237415.0,286046955.0,N
1499237415.9,286046955.0,N
1499237435.8,286046955.2,N
1499237455.6,286046955.9,N
1499237475.4,286046955.1,N
1499237495.3,286046957.4,N
1499237515.1,286046954.9,N
1499237516.0,286046954.9,N
1499237535.8,286046955.5,N
1499237555.7,286046955.7,N
1499237575.5,286046957.4,N
1499237595.3,286046953.5,N
1499237615.2,286046951.9,N
1499237635.9,286046950.6,N
1499237655.7,286046951.9,N
1499237675.6,286046952.9,N
1499237695.4,286046950.5,N
1499237715.2,286046951.4,N
1499237735.0,286046950.3,N
1499237736.0,286046950.3,N
1499237755.8,286046948.7,N
1499237775.6,286046951.3,N
1499237795.4,286046951.0,N
1499237815.3,286046950.7,N
1499237835.1,286046949.5,N
1499237855.8,286046949.8,N
1499237875.7,286046949.6,N
1499237895.5,286046949.9,N
1499237915.5,286046949.8,N
1499237935.3,286046950.0,N
1499237955.1,286046948.7,N
1499237975.9,286046951.3,N
1499237995.7,286046951.3,N
